X  Close Clear throughout the day.
Conditions Temperature Feels Precipitation Wind Wind Direction UV index Pressure
23:00 partly-cloudy-night Mostly Cloudy 23° - 23-42 km/h NNE NNE - 1014,3
00:00 partly-cloudy-night Mostly Cloudy 22° - 19-33 km/h North North - 1014,1
01:00 clear-night Clear 21° - 12-18 km/h North North - 1013,8
02:00 clear-night Clear 20° - 7-10 km/h NNW NNW - 1013,5
03:00 clear-night Clear 20° - 7-10 km/h NNW NNW - 1013,3
04:00 clear-night Clear 20° - 7-9 km/h NW NW - 1013,3
05:00 clear-day Clear 20° - 7-9 km/h NW NW - 1013,8
06:00 clear-day Clear 21° - 6-9 km/h NW NW - 1014,6
07:00 clear-day Clear 22° - 6-9 km/h NW NW uv-2 1015,0
08:00 clear-day Clear 25° 0.01 mm 1% 6-9 km/h NNW NNW uv-5 1014,9
09:00 clear-day Clear 27° 0.01 mm 1% 7-10 km/h North North uv-8 1014,5
10:00 clear-day Clear 29° 0.01 mm 1% 8-11 km/h NNE NNE uv-10 1014,0
11:00 clear-day Clear 30° - 11-14 km/h NNE NNE uv-12 1013,3
12:00 clear-day Clear 30° - 14-17 km/h NE NE uv-12 1012,7
13:00 clear-day Clear 31° - 17-21 km/h NE NE uv-11 1012,0
14:00 clear-day Clear 31° - 20-26 km/h NE NE uv-8 1011,5
15:00 clear-day Clear 30° - 21-33 km/h NE NE uv-5 1011,1
16:00 clear-day Clear 29° - 22-37 km/h NE NE uv-2 1011,1
17:00 clear-day Clear 27° - 22-39 km/h NE NE uv-1 1011,8
18:00 clear-day Clear 26° - 20-39 km/h NE NE - 1012,9
19:00 clear-night Clear 25° - 19-37 km/h NE NE - 1014,0
20:00 clear-night Clear 24° - 17-33 km/h NE NE - 1015,0
21:00 clear-night Clear 23° - 15-28 km/h NE NE - 1016,4
22:00 clear-night Clear 23° - 14-24 km/h NE NE - 1017,2
23:00 clear-night Clear 23° 0.01 mm 3% 13-21 km/h NE NE - 1017,4
00:00 clear-night Clear 22° 0.01 mm 3% 13-20 km/h NE NE - 1017,4
01:00 clear-night Clear 22° 0.01 mm 3% 12-19 km/h NE NE - 1017,3
02:00 clear-night Clear 21° 0.01 mm 3% 12-18 km/h NE NE - 1017,2
03:00 clear-night Clear 21° - 12-18 km/h NE NE - 1017,2
04:00 clear-night Clear 20° - 12-17 km/h NE NE - 1017,0
05:00 clear-day Clear 21° - 12-16 km/h NE NE - 1017,6
06:00 clear-day Clear 21° - 12-15 km/h NE NE - 1018,5
07:00 clear-day Clear 23° - 12-15 km/h NE NE uv-2 1019,1
08:00 clear-day Clear 24° - 13-14 km/h NE NE uv-5 1019,3
09:00 clear-day Clear 26° - 14-15 km/h NE NE uv-8 1019,4
10:00 clear-day Clear 27° - 15-16 km/h NE NE uv-10 1019,4
11:00 clear-day Clear 28° - 16-17 km/h NE NE uv-12 1019,0
12:00 clear-day Clear 29° - 17-19 km/h NE NE uv-12 1018,4
13:00 clear-day Clear 28° - 18-21 km/h NE NE uv-11 1017,8
14:00 clear-day Clear 28° - 18-22 km/h NE NE uv-8 1017,4
15:00 clear-day Clear 27° - 19-23 km/h NE NE uv-5 1016,9
16:00 clear-day Clear 27° - 18-24 km/h NE NE uv-2 1016,8
17:00 clear-day Clear 25° - 17-25 km/h NE NE uv-1 1017,2
18:00 clear-day Clear 24° - 15-25 km/h NE NE - 1017,8
19:00 clear-night Clear 23° - 13-25 km/h NE NE - 1018,2
20:00 clear-night Clear 22° - 12-24 km/h NE NE - 1018,8
21:00 clear-night Clear 21° - 12-22 km/h NE NE - 1019,5
22:00 clear-night Clear 21° - 11-21 km/h NE NE - 1019,8
23:00 clear-night Clear 20° - 11-19 km/h NE NE - 1019,6